Flight Briefing for GRZ523

Departure Arrival
Eareckson Air Station (PASY)
Click to view FAA NOTAMS
Ted Stevens Anchorage International Airport (PANC)
Click to view FAA NOTAMS
Departure Time Arrival Time
N/A N/A
Aircraft Distance
B727-200F 1264nm
Departure METAR Arrival METAR
PASY 271055Z 35013KT 7SM FEW006 OVC016 03/02 A2975 RMK AO2A SLP076 T00340024 RVRNO FZRANO $ PANC 271053Z 15015G23KT 10SM FEW080 SCT110 SCT220 11/05 A2980 RMK AO2 PK WND 14031/1000 SLP092 T01110050
Suggested Route
SYA G8 ADK G1 ELF G12 HBT G2 RWO ODK AMOTT4


View recent IFR Routes data
Notes



Charts and Procedures

Charts for PASY
No chart available
Charts for PANC
No chart available

Windy.com Weather Map